This demonstration page uses our WeatherBlox Daily Observations layout. Learn more.

Left ArrowRight Arrow

Hourly Observations for November 22, 2018

Temp ( °F °C ) Dew Point ( °F °C ) Humidity (%) Winds ( mph kmh ) Pressure ( in mb ) Visibility ( mi km ) Precip ( " mm )
12:53 am 00:53 Clear 40 4.4 37 2.8 89 89 ESE 8 13 30.20 1023 10 16 0.00 0.00
1:53 am 01:53 Clear 39 3.9 37 2.8 93 93 E 5 7 30.22 1023 10 16 0.00 0.00
2:53 am 02:53 Clear 34 1.1 32 0 92 92 NE 5 7 30.20 1023 9 14 0.00 0.00
3:53 am 03:53 Clear 34 1.1 32 0 92 92 NE 3 6 30.19 1022 7 11 0.00 0.00
4:39 am 04:39 Partly Cloudy with Mist and Fog 34 1.1 32 0 92 92 Calm 30.30 1026 6 10 0.00 0.00
4:53 am 04:53 Mostly Cloudy with Mist and Fog 34 1.1 32 0 92 92 Calm 30.18 1022 6 10 0.00 0.00
5:19 am 05:19 Cloudy with Mist and Fog 36 2.2 35 1.7 97 97 ESE 5 7 30.27 1025 2 3 0.00 0.00
5:29 am 05:29 Mostly Cloudy with Fog 38 3.3 36 2.2 93 93 ESE 8 13 30.27 1025 0 0 0.00 0.00
5:53 am 05:53 Mostly Cloudy with Fog 37 2.8 36 2.2 96 96 SE 7 11 30.19 1022 0 0 0.00 0.00
6:53 am 06:53 Mostly Cloudy with Fog 38 3.3 38 3.3 100 100 SE 5 7 30.19 1022 0 0 0.00 0.00
7:53 am 07:53 Mostly Cloudy with Fog 40 4.4 39 3.9 97 97 SE 6 9 30.19 1022 0 0 0.00 0.00
8:53 am 08:53 Mostly Cloudy with Fog 40 4.4 40 4.4 100 100 E 6 9 30.20 1023 0 0 0.00 0.00
9:40 am 09:40 Mostly Cloudy with Mist and Fog 41 5 40 4.4 96 96 SE 5 7 30.24 1024 1 1 0.00 0.00
9:53 am 09:53 Cloudy with Fog 41 5 40 4.4 96 96 VRB 5 7 30.20 1023 1 1 0.00 0.00
10:04 am 10:04 Mostly Cloudy with Fog 42 5.6 41 5 96 96 SSE 5 7 30.24 1024 0 0 0.00 0.00
10:15 am 10:15 Cloudy with Mist and Fog 42 5.6 41 5 96 96 VRB 3 6 30.24 1024 1 1 0.00 0.00
10:19 am 10:19 Cloudy with Mist and Fog 42 5.6 41 5 96 96 SE 5 7 30.24 1024 2 3 0.00 0.00
10:30 am 10:30 Cloudy with Mist and Fog 42 5.6 41 5 96 96 Calm 30.24 1024 1 2 0.00 0.00
10:41 am 10:41 Cloudy with Mist and Fog 42 5.6 41 5 96 96 ESE 3 6 30.24 1024 3 5 0.00 0.00
10:53 am 10:53 Cloudy with Mist and Fog 43 6.1 41 5 93 93 VRB 3 6 30.19 1023 4 6 0.00 0.00
11:23 am 11:23 Mostly Cloudy 45 7.2 41 5 86 86 VRB 3 6 30.21 1023 10 16 0.00 0.00
11:34 am 11:34 Partly Cloudy 48 8.9 41 5 77 77 ESE 6 9 30.21 1023 10 16 0.00 0.00
11:53 am 11:53 Sunny 50 10 42 5.6 74 74 ESE 5 7 30.14 1021 10 16 0.00 0.00
12:53 pm 12:53 Sunny 57 13.9 41 5 55 55 SSE 6 9 30.08 1019 10 16 0.00 0.00
1:53 pm 13:53 Sunny 61 16.1 42 5.6 50 50 SE 8 13 30.02 1017 10 16 0.00 0.00
2:53 pm 14:53 Sunny 62 16.7 42 5.6 48 48 SE 10 17 29.98 1015 10 16 0.00 0.00
3:53 pm 15:53 Sunny 62 16.7 43 6.1 50 50 SE 8 13 29.97 1015 10 16 0.00 0.00
4:53 pm 16:53 Sunny 62 16.7 44 6.7 52 52 SE 9 15 29.96 1015 10 16 0.00 0.00
5:53 pm 17:53 Clear 60 15.6 44 6.7 56 56 SE 7 11 29.95 1014 10 16 0.00 0.00
6:53 pm 18:53 Partly Cloudy 57 13.9 44 6.7 62 62 SE 10 17 29.96 1015 10 16 0.00 0.00
7:53 pm 19:53 Mostly Cloudy 54 12.2 44 6.7 69 69 SSE 10 17 29.96 1015 10 16 0.00 0.00
8:53 pm 20:53 Mostly Clear 52 11.1 44 6.7 75 75 SSE 12 19 29.94 1014 10 16 0.00 0.00
9:53 pm 21:53 Mostly Clear 50 10 43 6.1 77 77 SSE 10 17 29.95 1014 10 16 0.00 0.00
10:53 pm 22:53 Clear 48 8.9 43 6.1 83 83 S 6 9 29.93 1014 10 16 0.00 0.00
11:53 pm 23:53 Clear 47 8.3 43 6.1 86 86 SE 5 7 29.91 1013 10 16 0.00 0.00

Powered by AerisWeather